Flag for U.S.A. Weather past 2 weeks in Decatur, Illinois, U.S.A.

Now
83 °F

Sunny.


Feels Like: 85 °F
Forecast: 72 / 93 °F
Wind: 5 mph from South

Location: Decatur Airport

Current Time: Sep 4, 2015 at 8:46:03 PM

Latest Report: Sep 4, 2015 at 7:54 PM


Visibility: 10 mi

Pressure: 29.98 "Hg

Humidity: 57%

Dew point: 66 °F

Location of DecaturLocation

Historic Weather in Decatur — Graph

°F

Decatur temperature yesterday

Maximum temperature yesterday: 94 °F (at 2:54 PM)
Minimum temperature yesterday: 71 °F (at 4:54 AM)
Average temperature yesterday: 81 °F

Past Weeks' High & Low Weather Summary

 TemperatureHumidityPressure
High95 °F (Sep 4, 2:54 PM)93% (Aug 23, 7:54 AM)30.21 "Hg (Aug 23, 7:54 AM)
Low51 °F (Aug 27, 12:54 AM)35% (Aug 24, 1:54 PM)29.89 "Hg (Sep 3, 5:54 PM)
Average73 °F68%30.04 "Hg
* Reported Aug 20 7:54 PM — Sep 4 7:54 PM, Decatur, Weather by CustomWeather, © 2015

Note: Actual official high and low records may vary slightly from our data, if they occured in-between our weather recording intervals... More about our weather records

Advertising

Decatur weather history for previous 24 hours

 ConditionsComfort  
Time TempWeatherWind HumidityBarometerVisibility
7:54 PM
Fri, Sep 4
83 °FSunny.5 mph57%29.98 "Hg10 mi
6:54 PM85 °FSunny.7 mph51%29.98 "Hg10 mi
5:54 PM92 °FThundershowers. Sunny.8 mph41%29.97 "Hg10 mi
4:54 PM93 °FPassing clouds.10 mph40%29.96 "Hg10 mi
3:54 PM94 °FSunny.6 mph38%29.96 "Hg10 mi
2:54 PM95 °FSunny.7 mph37%29.98 "Hg10 mi
1:54 PM92 °FPassing clouds.7 mph43%29.99 "Hg10 mi
12:54 PM93 °FSunny.8 mph42%30.00 "Hg10 mi
11:54 AM90 °FSunny.6 mph48%30.01 "Hg10 mi
10:54 AM89 °FSunny.6 mph52%30.02 "Hg10 mi
9:54 AM86 °FSunny.5 mph59%30.02 "Hg10 mi
8:54 AM81 °FSunny.5 mph69%30.01 "Hg10 mi
7:54 AM75 °FSunny.3 mph79%30.00 "Hg10 mi
6:54 AM71 °FClear.No wind84%29.99 "Hg9 mi
5:54 AM71 °FClear.No wind84%29.97 "Hg10 mi
4:54 AM72 °FClear.3 mph81%29.96 "Hg10 mi
3:54 AM71 °FClear.3 mph84%29.96 "Hg10 mi
2:54 AM73 °FClear.No wind79%29.95 "Hg10 mi
1:54 AM74 °FClear.5 mph79%29.94 "Hg10 mi
12:54 AM75 °FClear.5 mph76%29.95 "Hg10 mi
11:54 PM
Thu, Sep 3
75 °FClear.6 mph76%29.94 "Hg10 mi
10:54 PM77 °FPassing clouds.6 mph74%29.94 "Hg10 mi
9:54 PM78 °FClear.6 mph71%29.94 "Hg10 mi
8:54 PM79 °FClear.5 mph65%29.93 "Hg10 mi
Weather by CustomWeather, © 2015

See weather overviewHow to use our weather pages